"Pseudo-MPEC" for TianweB = Tianwen-1 booster

Created 2020 Jul 26 16:18:29 UT using Find_Orb

Click here for an explanation of pseudo-MPECs

We also have data for the Tianwen-1 spacecraft. It took us a while to figure out which object was the booster and which was the spacecraft, but we're now confident of the identification.

 
 Astrometry: 
     TianweB KC2020 07 24.06585200 46 11.114+14 37 57.91         15.1 G      J04
     TianweB KC2020 07 24.06818000 46 10.795+14 38 25.01         15.1 G      J04
     TianweB KC2020 07 24.07051300 46 10.420+14 38 51.92         15.1 G      J04
     TianweB  CK200724:022307   011.26580   +14.60272            15.1 GV     I89
     TianweB  CK200724:022610   011.26183   +14.60817            15.3 GV     I89
     TianweB  CK200724:023039   011.25551   +14.61631            16.1 GV     I89
     TianweB KC2020 07 24.10567100 45 59.840+14 45 09.84         15.3 G      J04
     TianweB  CK200724:023458   011.24968   +14.62379            15.1 GV     I89
     TianweB KC2020 07 24.10797700 45 58.885+14 45 32.72         15.2 G      J04
     TianweB KC2020 07 24.20525300 44 56.340+14 58 11.03         15.3 G      J04
     TianweB KC2020 07 24.20757100 44 54.591+14 58 24.01         15.4 G      J04
     TW001a   CK200724:191237   012.45843   +15.25132            16.3 GV     N88
     TW001a   CK200724:192330   012.45118   +15.26100            16.8 GV     N88
     TW001a   CK200724:193607   012.44183   +15.27163            16.2 GV     N88
     TW001a   CK200724:194845   012.43138   +15.28226            16.5 GV     N88
     TianweB KC2020 07 25.04562100 50 45.267+15 26 19.45         16.9 G      Z84
     TianweB KC2020 07 25.04939800 50 44.308+15 26 34.59         16.7 G      Z84
     TianweB KC2020 07 25.05317400 50 43.345+15 26 49.06         16.6 G      Z84
     TianweB KC2020 07 25.05695400 50 42.341+15 27 03.29         16.7 G      Z84
     TianweB KC2020 07 25.06407 00 50 15.73 +15 24 06.3          16.7 G      204
     TianweB KC2020 07 25.06650 00 50 14.97 +15 24 14.1          16.7 G      204
     TianweB KC2020 07 25.06893 00 50 14.18 +15 24 21.7          16.7 G      204
     TianweB KC2020 07 25.07136 00 50 13.38 +15 24 29.2          16.7 G      204
     TianweB KC2020 07 25.07380 00 50 12.57 +15 24 36.7          16.7 G      204
     TianweB KC2020 07 25.07776 00 50 11.20 +15 24 49.0          16.8 G      204
     TianweB KC2020 07 25.08020 00 50 10.37 +15 24 56.1          16.8 G      204
     TianweB KC2020 07 25.08263 00 50 09.53 +15 25 03.3          16.8 G      204
     TianweB KC2020 07 25.08506 00 50 08.68 +15 25 10.2          16.8 G      204
     TianweB KC2020 07 25.08749 00 50 07.79 +15 25 17.1          16.9 G      204
     TianweB KC2020 07 25.12635200 50 16.579+15 30 49.19         16.9 G      Z84
     TianweB KC2020 07 25.12909100 50 15.358+15 30 56.32         16.8 G      Z84
     TianweB KC2020 07 25.13184200 50 14.113+15 31 03.47         16.8 G      Z84
     TianweB KC2020 07 25.13459400 50 12.864+15 31 10.50         16.9 G      Z84
     TianweB KC2020 07 25.18418200 49 49.189+15 32 53.54         16.8 G      Z84
     Tianw1B  CK200725:212337   012.91269   +15.70488            17.8 GV     N88
     Tianw1B  CK200725:212944   012.90649   +15.70653            17.5 GV     N88
     Tianw1B  CK200725:213549   012.90084   +15.70811            17.4 GV     N88
     TianweB  CK200725:23383435 013.08431   +15.63504            17.7 GV     J95
     TianweB  CK200725:23430634 013.08411   +15.63713            17.9 GV     J95
     TianweB  CK200725:23473428 013.08364   +15.63895            17.5 GV     J95
     TianweB KC2020 07 26.12582700 52 06.976+15 47 11.03         17.5 G      Z84
     TianweB KC2020 07 26.12750400 52 06.408+15 47 13.32         17.6 G      Z84
     TianweB KC2020 07 26.12918600 52 05.818+15 47 15.68         17.8 G      Z84

Station data:
(204) Schiaparelli Observatory  (N45.867933 E8.770800)  Italy.  Observer L.
   Buzzi. 0.60-m f/4.64 Newtonian + CCD.
(I89) iTelescope Observatory, Nerpio  (N38.165287 W2.326100)  Spain.
   Observer M. Suzuki.
(J04) ESA Optical Ground Station, Tenerife  (N28.300924 W16.511830)  Canary
   Islands (Spain).  Observer D. Abreu. Measurers M. Micheli, D. Koschny, E.
   Schwab, M. Busch, A. Knöfel. 1.0-m f/4.4 reflector + CCD.
(J95) Great Shefford  (N51.474969 W1.447003)  UK.  Observer P. Birtwhistle.
(N88) Xingming Observatory #3, Nanshan  (N43.471787 E87.173220)  China.
   Observer X. Gao. Measurers M. Zhang, Q.-Z. Ye.
(Z84) Calar Alto-Schmidt  (N37.223981 W2.548143)  Spain.  Observer E. Schwab.
   Measurers E. Schwab, D. Koschny, M. Micheli. 0.8-m f/3 Schmidt + CCD.

Orbital elements:  TianweB (geocentric,  hyperbolic escape) 
   Perigee 2020 Jul 23.2194966 +/- 0.000122 TT =  5:16:04.50 (JD 2459053.7194966)
Epoch 2020 Jul 23.3 TT = JDT 2459053.8                        Find_Orb
q  6652.3613467 +/- 5.79            (J2000 equator)
H   26.3  G 0.15                    Peri.  252.7406326 +/- 0.014
                                    Node   339.2565700 +/- 0.017
e   1.216046912 +/- 0.000333        Incl.   27.2742914 +/- 0.00028
From 43 observations 2020 July 24-26; mean residual 0".568

Orbital elements:  TianweB (heliocentric,  Mars cruise) 
   Perihelion 2020 Jul 18.4135073 +/- 0.000169 TT =  9:55:27.03 (JD 2459048.9135073)
Epoch 2020 Oct  1.0 TT = JDT 2459123.5   Earth MOID: 0.0002   Ma: 0.0042
M  48.1062026155 +/- 0.008          (J2000 ecliptic)          Find_Orb
n   0.6449720439 +/- 0.000113       Peri.  355.5009808 +/- 0.0008
a   1.3267083284 +/- 0.000155       Node   299.9587433 +/- 0.00042
e   0.234530336 +/- 9e-5            Incl.    1.0446863 +/- 0.00031
P   1.53/558.15d           H 26.3   G  0.15   U  6.6
q 1.0155549774 +/- 4.61e-7    Q 1.6378616794 +/- 0.000311
From 43 observations 2020 July 24-26; mean residual 0".568

Orbital elements:  TianweB,  arrival at Mars 
   Perimars 2021 Jan 17.2024549 +/- 0.157 TT =  4:51:32.10 (JD 2459231.7024549)
Epoch 2021 Jan 17.0 TT = JDT 2459231.5                        Find_Orb
q   0.0148088792 +/- 3.74e-5        (J2000 ecliptic)
H   26.3  G 0.15                    Peri.  188.1819571 +/- 1.1
                                    Node   111.7544583 +/- 1.2
e 476.249547944 +/- 2.94            Incl.   18.5160032 +/- 0.09
From 43 observations 2020 July 24-26; mean residual 0".568
Residuals in arcseconds: 
200724 J04 1.42+ 1.17-    200725 Z84 .122+ .124+    200725 Z84 .343- .277+
200724 J04 1.43+ 1.07-    200725 Z84 .330- .441+    200725 Z84 .433- .281+
200724 J04 1.30+ 1.00-    200725 Z84 .141- .288+    200725 Z84 .423- .297+
200724 I89 .404+ .567-    200725 Z84 .155+ .079+    200725 Z84 .693- .227+
200724 I89 .593+ .696-    200725 204 .230- .071-    200725 N88 .428+ .068-
200724 I89 .344- .064-    200725 204 .090- .031+    200725 N88 .462- .183-
200724 J04 .852+ .635-    200725 204 .211- .023+    200725 N88 .631+ .308-
200724 I89 .153+ .340-    200725 204 .308- 4.2m+    200725 J95 .377+ .581-
200724 J04 1.35+ .711-    200725 204 .338- .045+    200725 J95 .648+ .263-
200724 J04 .621- .496+    200725 204 .849- .433+    200725 J95 .287+ .771-
200724 J04 .629- .459+    200725 204 .758- .314+    200726 Z84 .636+ .109-
200724 N88 .171- .340+    200725 204 .715- .417+    200726 Z84 .683+ .234-
200724 N88 .347- .707+    200725 204 .675- .311+    200726 Z84 .480+ .264-
200724 N88 .353- .144+    200725 204 1.08- .298+
200724 N88 .614- .798+    200725 Z84 .365- .394+

